Location: Caracas
(10.5000°N, 66.9170°W)
Time: 04:49:02
(UTC-04:00)

Hubble Space Telescope - Visible Passes

Search period start: 21 June 2018 00:00
Search period end: 01 July 2018 00:00
Orbit: 537 x 541 km, 28.5° (Epoch: 20 June)

Date Brightness Start Highest point End Pass type
(mag) Time Alt. Az. Time Alt. Az. Time Alt. Az.
21 Jun 3.1 20:23:47 10° NNW 20:25:57 14° NNE 20:27:10 12° NE visible
22 Jun 2.9 20:13:00 10° NNW 20:15:45 17° NNE 20:17:15 14° NE visible
23 Jun 2.6 20:02:18 10° NNW 20:05:31 21° NNE 20:07:23 16° ENE visible
23 Jun 4.1 21:42:43 10° WNW 21:42:44 10° WNW 21:42:44 10° WNW visible
24 Jun 2.2 19:51:42 10° NW 19:55:15 27° NNE 19:57:32 17° ENE visible
24 Jun 3.8 21:32:28 10° WNW 21:32:53 13° WNW 21:32:53 13° WNW visible
25 Jun 1.8 19:41:09 10° NW 19:44:58 36° NNE 19:47:44 16° E visible
25 Jun 3.6 21:22:19 10° W 21:23:05 15° W 21:23:05 15° W visible
26 Jun 1.3 19:30:40 10° NW 19:34:40 49° NNE 19:37:59 14° E visible
26 Jun 3.4 21:12:18 10° W 21:13:20 16° W 21:13:20 16° W visible
27 Jun 0.9 19:20:14 10° WNW 19:24:21 70° NNE 19:28:15 11° ESE visible
27 Jun 3.3 21:02:27 10° WSW 21:03:36 15° WSW 21:03:36 15° WSW visible
28 Jun 0.8 19:09:52 10° WNW 19:14:01 83° SSW 19:18:08 10° ESE visible
28 Jun 3.4 20:52:55 10° WSW 20:53:55 13° SW 20:53:55 13° SW visible
